HUBBLE
1 20580U 90037B 10055.73988967 .00000618 00000-0 34576-4 0 5273
2 20580 028.4693 253.9101 0003699 086.8123 273.2854 15.00906071887840
ISS
1 25544U 98067A 10057.07319131 .00013464 00000-0 99027-4 0 6523
2 25544 051.6465 081.0210 0007015 346.8094 056.6118 15.73423637645977
CO-58
1 28895U 05043F 10055.85040875 .00000085 00000-0 27289-4 0 5207
2 28895 098.0324 303.9496 0016833 277.8875 082.0448 14.59850529230592
FALCON
1 30776U 07006E 10056.92657078 .00001014 00000-0 75920-4 0 7735
2 30776 035.4339 359.6990 0001964 307.8277 052.2265 15.03494358163304
MAST
1 31126U 07012K 10056.70639820 .00000073 00000-0 26975-4 0 8060
2 31126 097.9531 104.4054 0093843 212.3131 147.2292 14.53557068151869
CAPE1
1 31130U 07012P 10056.64970098 .00000194 00000-0 55623-4 0 8238
2 31130 097.9546 101.9865 0102140 219.5774 139.7938 14.52139914151470
COMPASS
1 32787U 08021E 10055.80677561 .00000341 00000-0 49968-4 0 6040
2 32787 097.9058 122.0514 0014972 293.7863 066.1794 14.81769642 98854
AAUSAT2
1 32788U 08021F 10056.83325805 .00000768 00000-0 10360-3 0 5995
2 32788 097.9100 123.1742 0014485 291.3132 068.6454 14.81908847 99011
DO-64
1 32789U 08021G 10056.71552613 .00000515 00000-0 71634-4 0 6153
2 32789 097.9140 123.4110 0014577 288.4783 071.4818 14.81981861 98998
CO-66
1 32791U 08021J 10056.15070000 .00000679 00000-0 93083-4 0 5959
2 32791 097.9072 122.4172 0015087 290.7746 069.1880 14.81576125 98866
RS-30
1 32953U 08025A 10056.65141016 .00000010 00000-0 00000 0 0 5348
2 32953 082.5001 099.0463 0018593 350.4938 009.5788 12.43003733 79884
TACSAT-3
1 35001U 09028A 10056.66087079 .00007186 00000-0 17707-3 0 2241
2 35001 040.4542 163.4494 0023221 252.0084 107.8195 15.40470883 43426
PHARMSAT
1 35002U 09028B 10055.68450238 .00006507 00000-0 15719-3 0 2139
2 35002 040.4697 167.7582 0026198 248.8230 110.9784 15.41108333 43287
HAWKSAT1
1 35003U 09028C 10056.42473523 .00012719 00000-0 28371-3 0 2247
2 35003 040.4603 160.7812 0025041 260.4057 099.3923 15.42951636 43432
CP6
1 35004U 09028D 10056.59674608 .00014676 00000-0 32202-3 0 2177
2 35004 040.4627 159.4616 0024962 261.1864 098.6125 15.43356987 43458
AEROCUB3
1 35005U 09028E 10056.41717158 .00029768 00000-0 62603-3 0 2308
2 35005 040.4712 161.0325 0021303 265.1901 094.6466 15.44386275 43427
DRAGNSAT
1 35690U 09038B 10056.43471946 .00284500 48484-4 37336-3 0 2813
2 35690 051.6309 063.5405 0003752 095.5220 264.6356 16.06351337 33364
POLLUX
1 35693U 09038E 10056.49563741 .00114414 16894-4 20946-3 0 2788
2 35693 051.6368 065.5335 0010590 120.8029 239.4073 16.01023167 33316
CASTOR
1 35694U 09038F 10056.85685113 .00043127 00000-0 15531-3 0 2062
2 35694 051.6395 069.6201 0004559 095.4438 264.7107 15.88223211 33295
METEOR-M
1 35865U 09049A 10056.80626229 .00000176 00000-0 10000-3 0 1367
2 35865 098.7744 111.3274 0002260 346.2069 013.8998 14.21828836 22899
RS-38
1 35869U 09049E 10056.22660443 .00000176 00000-0 10000-3 0 1385
2 35869 098.7741 110.7730 0004393 339.9476 020.1485 14.21976080 22819
